Regional Weather Roundup
Issued by NWS

Home | Current Version | Previous Version | Text Only | Print | Product List | Glossary On
Versions: 1 2 3 4 5 6 7 8 9 10 11 12 13 14 15 16 17 18 19 20 21 22 23 24 25 26 27 28 29 30 31 32 33 34 35 36 37 38 39 40 41 42 43 44 45 46 47 48 49 50
000
ASUS43 KDTX 230710
RWRMI
MICHIGAN HOURLY REGIONAL WEATHER ROUNDUP
NATIONAL WEATHER SERVICE DETROIT/PONTIAC MI
300 AM EDT TUE SEP 23 2014

NOTE: "FAIR" INDICATES FEW OR NO CLOUDS BELOW 12,000 FEET WITH NO
SIGNIFICANT WEATHER AND/OR OBSTRUCTION TO VISIBILITY.

MIZ047>049-052>055-059>063-066>070-074>076-081>083-230800-
SOUTHEAST LOWER MICHIGAN

CITY           SKY/WX    TMP DP  RH WIND       PRES   REMARKS
ADRIAN         CLEAR     44  43  96 CALM      30.29S
ALMA           CLEAR     47  45  92 SW3       30.27R
ANN ARBOR      CLEAR     42  39  89 CALM      30.28S FOG
BAD AXE        CLEAR     45  45  99 SW3       30.25S
DETROIT CITY   CLEAR     50  44  80 CALM      30.29R
DETROIT        CLEAR     48  44  86 CALM      30.29R
FLINT          CLEAR     46  42  86 CALM      30.27S
GROSSE ILE     CLEAR     50  45  81 CALM      30.27S
HILLSDALE      CLEAR     42  42 100 CALM      30.28S FOG
HOWELL         CLEAR     46  44  96 CALM      30.27S

CITY           SKY/WX    TMP DP  RH WIND       PRES   REMARKS
JACKSON        CLEAR     44  42  93 CALM      30.28S
LAMBERTVILLE   CLEAR     45  43  93 CALM      30.29S
LANSING        CLEAR     47  44  90 SW3       30.28R
LAPEER         NOT AVBL
MASON          CLEAR     44  42  96 CALM      30.28R
MONROE         CLEAR     45  43  93 CALM      30.27S
MT. CLEMENS    CLEAR     47  45  95 W2        30.26R
PONTIAC        CLEAR     47  43  86 CALM      30.27R
PORT HOPE        N/A     51  47  86 SW7       30.21S
PORT HURON     CLEAR     41  41 100 CALM      30.27S
TRI CITIES     CLEAR     49  46  90 SW7       30.26S
YPSILANTI      CLEAR     49  43  80 CALM      30.29R
$$
MIZ043>046-050>051-056>058-064>065-071>073-077>080-230800-
SOUTHWEST LOWER MICHIGAN

CITY           SKY/WX    TMP DP  RH WIND       PRES   REMARKS
BATTLE CREEK   CLEAR     47  42  83 CALM      30.28S
BENTON HARBOR  CLEAR     43  42  97 CALM      30.28S
BIG RAPIDS     CLEAR     51  50  96 SW6       30.24S
COLDWATER      CLEAR     44  43  97 CALM      30.29S
HOLLAND        CLEAR     49  44  83 S6        30.28R
GRAND RAPIDS   CLEAR     48  44  86 SE3       30.27S
KALAMAZOO      CLEAR     45  42  89 CALM      30.28S
MARSHALL       CLEAR     42  41  98 S8        30.28S
MUSKEGON       CLEAR     52  48  86 S5        30.26S
$$
MIZ016>042-230800-
NORTHERN LOWER MICHIGAN

CITY           SKY/WX    TMP DP  RH WIND       PRES   REMARKS
ALPENA         CLEAR     51  46  83 SW8       30.18S
BEAVER ISLAND  CLEAR     57  55  91 SW6       30.16S
BELLAIRE       CLEAR     47  44  88 CALM      30.21R
CADILLAC       CLEAR     45  43  93 CALM      30.23R
CHARLEVOIX     CLEAR     54  51  92 SW10      30.21R
FRANKFORT      SUNNY     57  54  88 CALM      30.21R
GAYLORD        CLEAR     50  45  83 W6        30.20R
GRAYLING       CLEAR     49  46  90 CALM      30.23R
HARBOR SPRINGS CLEAR     55  50  82 SW6       30.18S
HOUGHTON LAKE  CLEAR     50  46  86 SW8       30.23R
MANISTEE       CLEAR     45  41  87 E5        30.22S
OSCODA         CLEAR     47  45  92 SW7       30.20S
PELLSTON       CLEAR     56  51  84 W7        30.17R
TRAVERSE CITY  CLEAR     52  47  83 CALM      30.20R
$$
MIZ007>008-015-230800-
EASTERN UPPER MICHIGAN

CITY           SKY/WX    TMP DP  RH WIND       PRES   REMARKS
KINROSS        CLEAR     52  52 100 SW3       30.12S
MACKINAC ISLAN CLEAR     58  56  93 SW10G18   30.15R
NEWBERRY       CLEAR     53  48  84 SW9       30.12S
S. S. MARIE    CLEAR     53  49  86 SW8       30.10S
$$
MIZ004>006-011>014-085-230800-
CENTRAL UPPER MICHIGAN

CITY           SKY/WX    TMP DP  RH WIND       PRES   REMARKS
MANISTIQUE     CLEAR     55  50  85 CALM      30.14S
ESCANABA       CLEAR     48  45  87 W5        30.16S
MENOMINEE      CLEAR     52  48  87 CALM      30.18S
SAWYER-GWINN   CLEAR     49  46  88 CALM      30.16R
$$
MIZ001>003-009>011-084-230800-
WESTERN UPPER MICHIGAN

CITY           SKY/WX    TMP DP  RH WIND       PRES   REMARKS
IRON MOUNTAIN  CLEAR     49  46  90 CALM      30.17R
HOUGHTON       CLEAR     57  49  74 W12       30.12R
COPPER HARBOR    N/A     63  49  60 NW8       30.08R
IRONWOOD       CLEAR     54  52  94 SW7       30.16R
$$

ABBREVIATIONS USED IN REMARKS
   TC - TEMPERATURE IN CELSIUS
  WCI - WIND CHILL INDEX
   HX - HEAT INDEX
  VSB - VISIBILITY



USA.gov is the U.S. government's official web portal to all federal, state and local government web resources and services.